TIME,DELAY(SENSOR),PRES,T(CTD),SAL,OXYGEN,RAWTEMP,T(OPTODE),TCPHASE,FLUOR,BETA(BETA700),BETA(BETA412),BETA(BETA440),CDOM,C(CSC),ED(ED411.90),ED(ED443.80),ED(ED489.40),ED(ED554.70),LU(LU412.20),LU(LU443.80),LU(LU489.40),LU(LU555.00),COMP,TILTX,TILTX(TILTY),CHECK
1358179690,5805,496.6099853515625000,17.3717002868652340,36.4396018981933600,226.8450927734375000,176.1618041992187500,17.3671092987060550,31.4187393188476560,52,101,95,80,68,12362,2146955968,2147511433,2147271588,2147461705,2147085165,2146955035,2147657499,2147128859,1623,-1,8,51053
1358179819,5807,484.4899902343750000,17.4251003265380860,36.4496002197265600,229.3426055908203000,174.5800018310547000,17.4148197174072270,31.2719001770019530,51,102,95,80,67,12367,2146959789,2147515748,2147268973,2147462848,2147078646,2146955584,2147657371,2147126226,537,-2,8,23097
1358179946,5805,472.5799865722656000,17.4570007324218750,36.4509010314941400,225.0722045898437500,173.2639007568359400,17.4545307159423830,31.4695701599121100,51,102,96,80,68,12365,2146958116,2147515227,2147269760,2147459821,2147080768,2146957878,2147659026,2147127561,106,-1,8,18902
1358180073,5807,460.8200073242187500,17.5589008331298830,36.4702987670898440,226.9582977294922000,170.0169982910156200,17.5524997711181640,31.3294696807861330,51,101,96,80,67,12365,2146958720,2147514715,2147269933,2147457618,2147080000,2146953581,2147655113,2147125458,2685,-1,9,60252
1358180190,5805,450.0400085449219000,17.6497001647949220,36.4884986877441400,229.1340026855468800,167.0287017822265600,17.6426696777343750,31.1798400878906250,50,101,96,79,67,12364,2146956653,2147512320,2147267465,2147460397,2147078144,2146954596,2147657792,2147125723,1955,-1,8,61342
1358180305,5805,439.7099914550781000,17.7422008514404300,36.5070991516113300,231.3574981689453000,163.9539947509765600,17.7354698181152340,31.0280895233154300,51,101,95,80,68,12365,2146956946,2147509120,2147270381,2147456082,2147075702,2146957458,2147657069,2147126482,1222,-1,9,61644
1358180434,5807,428.2500000000000000,17.8386993408203120,36.5247001647949200,233.3600006103515600,160.6540069580078000,17.8350906372070300,30.8858299255371100,51,101,95,80,67,12361,2146958619,2147512192,2147270180,2147460425,2147079222,2146955145,2147647277,2147128310,706,-1,8,3200
1358180561,5803,417.2000122070312500,17.8917999267578120,36.5351982116699200,234.0007019042968800,158.8139953613281200,17.8906402587890620,30.8299903869628900,52,101,95,80,68,12362,2146955419,2147515958,2147270518,2147455716,2147080877,2146958162,2147653632,2147126363,3377,-1,9,62545
1358180688,5803,406.2099914550781000,17.9435005187988280,36.5418014526367200,233.8596038818359400,157.1587982177734400,17.9406204223632800,30.8146495819091800,51,103,98,81,67,12359,2146957056,2147514742,2147267812,2147459730,2147078994,2146956004,2147648521,2147128914,2552,-1,8,59603
1358180817,5803,394.9500122070312500,17.9838008880615230,36.5457992553710940,233.5836944580078000,155.8045959472656200,17.9815101623535160,30.8099708557128900,51,100,95,81,67,12360,2146960941,2147514605,2147269741,2147455085,2147079341,2146958646,2147652754,2147128512,1908,-1,9,1370
1358180944,5803,383.9599914550781000,18.0289993286132800,36.5499000549316400,231.9528961181640600,154.3753051757812500,18.0246791839599600,30.8703708648681640,52,101,96,79,69,12361,2146955931,2147516891,2147268297,2147458422,2147082870,2146961837,2147650450,2147129654,1239,-1,9,8866
1358181073,5806,372.8500061035156000,18.0895996093750000,36.5578002929687500,231.5596923828125000,152.2834930419922000,18.0878601074218750,30.8615303039550780,51,103,96,81,67,12360,2146959460,2147514084,2147264201,2147455140,2147079195,2146959314,2147652562,2147128640,981,-1,9,19934
1358181200,5805,362.0400085449219000,18.1534004211425780,36.5639991760253900,230.9011993408203000,150.2071075439453000,18.1505794525146500,30.8659992218017580,51,102,95,79,66,12359,2146955794,2147513051,2147264868,2147452251,2147080365,2146957741,2147655012,2147130715,691,-2,9,13888
1358181327,5805,351.3599853515625000,18.2261009216308600,36.5740013122558600,230.3565979003906200,147.8180999755859400,18.2227592468261720,30.8608093261718750,51,103,96,81,66,12360,2146955931,2147514944,2147268480,2147454180,2147075766,2146958738,2147651840,2147126125,3322,-1,9,51035
1358181456,5805,340.8299865722656000,18.2796001434326170,36.5769004821777340,228.4949035644531200,145.9264984130859400,18.2799205780029300,30.9274806976318360,51,101,96,81,67,12359,2146956050,2147514084,2147266770,2147453696,2147081142,2146959222,2147652918,2147128475,2255,-2,9,58865
1358181595,5804,329.8599853515625000,18.3570003509521500,36.5859985351562500,227.9674072265625000,143.5153045654297000,18.3527908325195300,30.9213294982910160,52,101,95,80,67,12357,2146952658,2147512704,2147264457,2147457728,2147079113,2146958345,2147655387,2147128941,1319,-2,9,21360
1358181755,5805,315.8999938964844000,18.4274005889892580,36.5906982421875000,226.6831054687500000,140.4812927246093800,18.4444904327392580,30.9450397491455080,51,102,96,80,69,12360,2146953755,2147515346,2147268050,2147453613,2147077485,2146954496,2147653760,2147128868,783,-1,8,32694
1358181870,5804,304.2600097656250000,18.5123004913330080,36.5970001220703100,224.3092041015625000,138.3000030517578000,18.5104408264160160,31.0353698730468750,52,101,96,80,67,12359,2146958912,2147515913,2147268489,2147453970,2147079442,2146960502,2147648658,2147130084,3211,-1,8,61821
1358181985,5806,292.5700073242187500,18.6130008697509770,36.6018981933593750,222.0339050292968800,135.1309967041015600,18.6062698364257800,31.1090507507324220,51,102,96,81,68,12357,2146957997,2147513472,2147266944,2147452507,2147083227,2146957869,2147657874,2147127570,3252,-2,8,8101
1358182090,5806,282.1900024414062500,18.7341003417968750,36.6059989929199200,221.8435974121093800,130.7044067382812500,18.7401599884033200,31.0595607757568360,52,101,96,79,67,12359,2146956013,2147516251,2147267721,2147453851,2147082066,2146960640,2147655753,2147126363,3206,-2,9,37025
1358182205,5805,271.4100036621094000,18.8701000213623050,36.6133995056152340,219.9880981445312500,126.4811019897461000,18.8679599761962900,31.0984592437744140,52,102,95,80,67,12355,2146957120,2147512137,2147267958,2147452854,2147079652,2146965019,2147655680,2147128082,2389,-1,9,65247
1358182332,5804,259.8699951171875000,18.9780006408691400,36.5998992919921900,224.3278045654297000,122.6376037597656200,18.9843006134033200,30.8251705169677730,51,100,95,82,68,12358,2146955757,2147514194,2147268004,2147451565,2147084507,2146961133,2147656512,2147130084,2468,-1,9,23261
1358182449,5804,249.3300018310547000,19.0583992004394530,36.5918006896972660,229.5279998779297000,120.3230972290039000,19.0543804168701170,30.5355491638183600,51,102,97,81,68,12358,2146953874,2147512045,2147266788,2147450550,2147081490,2146966464,2147656347,2147129645,2021,-2,9,56442
1358182576,5804,238.1100006103515600,19.1837997436523440,36.5821990966796900,235.2187042236328000,116.0710983276367200,19.1831493377685550,30.2040901184082030,51,100,95,79,67,12357,2146957165,2147511771,2147267456,2147452589,2147084187,2146968676,2147665289,2147130148,1264,-2,9,57678
1358182705,5808,226.8600006103515600,19.2791004180908200,36.5784988403320300,239.1815032958984400,113.0904006958007800,19.2734603881835940,29.9783897399902340,51,105,96,81,67,12355,2146957019,2147512722,2147266669,2147448219,2147086756,2146968566,2147671076,2147129024,929,-2,9,13265
1358182820,5805,216.6399993896484400,19.3271007537841800,36.5792007446289060,240.2460937500000000,111.4739990234375000,19.3224391937255860,29.9074592590332030,52,104,96,79,65,12352,2146956992,2147514541,2147268077,2147450221,2147087286,2146973586,2147675602,2147134582,737,-2,8,27630
1358182947,5804,205.4299926757812500,19.3722991943359380,36.5774993896484400,240.8500061035156200,109.9944992065429700,19.3672790527343750,29.8604698181152340,52,103,97,81,66,12354,2146956205,2147515245,2147265947,2147447652,2147085458,2146978267,2147691053,2147132086,3509,-1,9,42090
1358183046,5806,197.5700073242187500,19.4461994171142580,36.5820007324218750,241.0581970214843800,107.5829010009765600,19.4403896331787100,29.8193798065185550,52,103,98,81,67,12351,2146955675,2147514989,2147264146,2147451355,2147087652,2146989403,2147700736,2147133430,2924,-2,9,23539
1358183101,5808,193.5500030517578000,19.4944992065429700,36.5870018005371100,240.4295959472656200,105.9283981323242200,19.4905490875244140,29.8269805908203120,52,106,96,80,66,12349,2146956086,2147515035,2147266441,2147445513,2147087387,2146987904,2147708653,2147131346,2611,-1,9,46497
1358183156,5805,189.5500030517578000,19.5729007720947270,36.5938987731933600,239.4810943603515600,103.1330032348632800,19.5753307342529300,29.8346004486084000,52,105,97,80,66,12347,2146955227,2147516224,2147265353,2147447149,2147085668,2146989979,2147716096,2147132754,2368,-2,8,27401
1358183211,5805,185.6699981689453000,19.6305007934570300,36.6007003784179700,238.5233001708984400,101.4770965576171900,19.6255607604980470,29.8577404022216800,52,104,97,80,67,12346,2146958144,2147512201,2147268278,2147447131,2147089243,2146996205,2147722642,2147132827,1899,-2,9,4005
1358183266,5804,181.8500061035156200,19.7234001159667970,36.6114006042480500,237.2319946289062500,97.9851531982421900,19.7315196990966800,29.8727607727050780,52,104,96,82,66,12345,2146956425,2147513261,2147268946,2147445028,2147085842,2146998985,2147731794,2147134308,1637,-1,9,25839
1358183344,5804,176.9499969482422000,19.8901996612548830,36.6276016235351560,236.0128936767578000,93.1439895629882800,19.8784809112548830,29.8669795989990230,54,105,96,81,66,12346,2146959168,2147514386,2147269988,2147445037,2147091026,2147008164,2147744804,2147134500,2459,-2,9,38199
1358183411,5808,173.7100067138672000,19.9645004272460940,36.6338996887207000,235.5108032226562500,90.7983932495117200,19.9497108459472660,29.8604106903076170,54,103,97,82,67,12342,2146956681,2147514697,2147268269,2147445046,2147090651,2147008758,2147754304,2147136310,2685,-2,9,18809
1358183502,5803,169.4900054931640600,19.9955005645751950,36.6363983154296900,235.6143035888672000,89.4657897949218800,19.9901905059814450,29.8380794525146500,54,111,97,81,66,12343,2146954633,2147511698,2147270427,2147444745,2147091940,2147021302,2147771894,2147135506,2441,-2,9,60839
1358183581,5804,165.6799926757812500,20.1273002624511720,36.6469993591308600,235.1652984619140600,85.2059631347656200,20.1196193695068360,29.8043003082275400,54,110,98,82,68,12338,2146958765,2147515483,2147267821,2147446372,2147091830,2147022848,2147784777,2147136393,2214,-1,9,31890
1358183674,5806,161.3800048828125000,20.2893009185791000,36.6581001281738300,234.3495941162109400,79.9983520507812500,20.2779502868652340,29.7754402160644530,55,108,97,82,67,12328,2146955328,2147513645,2147267044,2147446189,2147097307,2147038217,2147809170,2147137654,2340,-2,9,44305
1358183765,5804,157.8200073242187500,20.4626998901367200,36.6705017089843750,233.9568939208984400,74.3081512451171900,20.4510593414306640,29.7203006744384770,55,111,98,82,68,12325,2146953746,2147518701,2147270802,2147443382,2147100406,2147049042,2147826002,2147138953,1709,-1,9,24881
1358183880,5804,154.0299987792968800,20.5069007873535160,36.6757011413574200,233.9752044677734400,72.5239334106445300,20.5053596496582030,29.6965599060058600,54,113,99,83,68,12326,2146956416,2147515867,2147270811,2147442642,2147102582,2147063286,2147851136,2147142930,2469,-2,9,5879
1358183992,5805,149.7799987792968800,20.8432998657226560,36.6608009338378900,235.1501007080078000,62.0758705139160160,20.8236293792724600,29.5067100524902340,56,113,98,83,66,12328,2146957074,2147514779,2147271689,2147440146,2147105042,2147083273,2147882048,2147142473,2182,-2,9,13439
1358184095,5805,146.0500030517578000,20.9300003051757800,36.6545982360839840,236.6730041503906200,59.0162696838378900,20.9169101715087900,29.3962898254394530,56,112,101,83,67,12320,2146958601,2147515913,2147273261,2147439789,2147112832,2147105517,2147922221,2147148416,2270,-2,9,49903
1358184210,5808,141.9900054931640600,21.0429000854492200,36.6393013000488300,237.7191009521484400,55.2971496582031250,21.0303592681884770,29.3002700805664060,57,115,100,83,66,12317,2146958162,2147520630,2147273700,2147441517,2147117092,2147129590,2147964589,2147149805,2623,-2,9,11873
1358184324,5806,137.6799926757812500,21.1550006866455080,36.5746994018554700,242.5319976806640600,51.6810111999511700,21.1407299041748050,29.0340690612792970,56,121,102,85,65,12310,2146955675,2147518921,2147277997,2147438189,2147129408,2147167917,2148025956,2147155675,1987,-1,9,29354
1358184427,5802,133.9499969482422000,21.0816993713378900,36.5079002380371100,251.8643035888672000,53.5338783264160160,21.0841693878173830,28.6455097198486330,67,135,105,87,62,12274,2146958601,2147521298,2147275977,2147439680,2147144411,2147210715,2148084068,2147158070,2042,-2,9,9346
1358184554,5806,129.8300018310547000,21.1844005584716800,36.4976997375488300,254.3466949462890600,50.5396804809570300,21.1755695343017580,28.5014190673828120,71,133,104,90,62,12261,2146959616,2147526646,2147284928,2147441718,2147161517,2147255872,2148161371,2147163510,1427,-2,9,54214
1358184657,5803,125.6999969482421900,21.2616004943847660,36.4954986572265600,254.4353942871093800,47.9124183654785160,21.2558097839355470,28.4646301269531250,69,138,105,88,63,12250,2146959734,2147524196,2147286326,2147440320,2147186093,2147315008,2148261513,2147167561,1398,-1,9,41843
1358184736,5808,121.7399978637695300,21.3075008392334000,36.4953994750976560,254.7413024902343800,46.4014091491699200,21.3019599914550780,28.4327602386474600,71,144,104,89,63,12255,2146962221,2147528347,2147289856,2147438153,2147209462,2147376850,2148363520,2147177929,1723,-1,9,391
1358184827,5804,117.1800003051757800,21.3138999938964840,36.4953994750976560,254.8872070312500000,46.1942901611328100,21.3082904815673830,28.4239006042480470,71,139,103,88,61,12249,2146966418,2147532160,2147295003,2147435977,2147248210,2147469540,2148514258,2147188818,1601,-2,9,21213
1358184906,5806,113.0999984741211000,21.3365993499755860,36.4957008361816400,255.1295928955078000,45.4120292663574200,21.3321895599365230,28.4037990570068360,71,134,108,90,63,12250,2146962944,2147535186,2147303561,2147439113,2147290550,2147573805,2148680475,2147202459,1511,-2,9,44035
1358184975,5805,109.3700027465820300,21.3376007080078120,36.4962005615234400,255.2812957763672000,45.3263702392578100,21.3348102569580080,28.3962707519531250,72,137,106,88,63,12215,2146965293,2147540105,2147310912,2147438052,2147340425,2147683675,2148851949,2147214454,1498,-2,9,20220
1358185042,5805,105.5199966430664000,21.3472003936767580,36.4949989318847660,255.5028076171875000,45.0587692260742200,21.3429908752441400,28.3834800720214840,72,133,106,88,63,12249,2146971273,2147543305,2147319094,2147437824,2147397741,2147824274,2149056576,2147230226,1614,-2,9,49976
1358185121,5805,100.8899993896484400,21.3628997802734380,36.4962005615234400,255.5283050537109400,44.4999618530273440,21.3600692749023440,28.3754901885986330,73,139,105,89,62,12243,2146972416,2147548370,2147329654,2147440173,2147487350,2148022299,2149358784,2147254720,1383,-2,9,44271
1358185176,5804,97.6800003051757800,21.3768005371093750,36.4962997436523440,255.5619049072265600,43.9875602722168000,21.3757190704345700,28.3677005767822270,73,135,105,90,63,12246,2146975835,2147554285,2147344502,2147438866,2147571117,2148188388,2149611739,2147278089,1278,-1,9,3954
1358185231,5806,94.5100021362304700,21.4832000732421880,36.5176010131835940,254.9781036376953000,40.7690391540527340,21.4741191864013670,28.3521595001220700,71,131,104,89,62,12247,2146979501,2147563163,2147355730,2147438454,2147668416,2148380644,2149886354,2147300278,1193,-2,9,45022
1358185288,5807,91.4300003051757800,21.4951000213623050,36.5219001770019500,254.7126007080078000,40.2816314697265600,21.4890193939209000,28.3573303222656250,68,134,105,92,63,12255,2146985920,2147571730,2147374985,2147438966,2147772132,2148583140,2150172196,2147329563,844,-2,9,28527
1358185343,5806,88.4599990844726600,21.4943008422851560,36.5219993591308600,254.7924957275390600,40.2362899780273440,21.4904098510742200,28.3535194396972660,69,133,103,88,61,12249,2146988580,2147580370,2147391286,2147443291,2147901339,2148833627,2150507593,2147357403,490,-2,9,59466
1358185398,5805,85.4800033569336000,21.4944000244140620,36.5227012634277340,254.7810058593750000,40.2089500427246100,21.4912490844726560,28.3535804748535160,68,134,104,87,62,12253,2146995117,2147588928,2147406966,2147442834,2148057216,2149113974,2150884288,2147391396,120,-2,9,13200
1358185453,5805,82.5400009155273400,21.4904994964599600,36.5211982727050800,254.9362030029297000,40.2989387512207000,21.4884891510009770,28.3480892181396500,69,133,105,88,62,12250,2147003446,2147602870,2147423561,2147443885,2148226889,2149430482,2151308589,2147429924,3469,-2,9,12073
1358185508,5804,79.6100006103515600,21.4750003814697270,36.5139999389648440,254.9631042480468800,40.7498588562011700,21.4747009277343750,28.3525791168212900,69,131,105,88,62,12247,2147007698,2147614774,2147439734,2147443748,2148422976,2149775570,2151778185,2147480301,3376,-2,9,55603
1358185563,5806,76.6999969482421900,21.4162998199462900,36.4889984130859400,255.1378021240234400,42.5185508728027340,21.4206295013427730,28.3673706054687500,73,145,105,87,62,12238,2147019913,2147628726,2147464128,2147444214,2148645933,2150167616,2152316571,2147537124,3227,-2,9,40840
1358185620,5806,73.7200012207031200,21.4263000488281250,36.4892005920410160,255.2424011230468800,42.3548011779785160,21.4256305694580080,28.3608207702636720,77,138,106,89,63,12223,2147029293,2147646564,2147485513,2147450166,2148911926,2150610057,2152919232,2147609371,3148,-2,9,33828
1358185675,5805,70.9400024414062500,21.4337005615234380,36.4903984069824200,255.2937011718750000,42.1827888488769500,21.4308891296386720,28.3565292358398440,78,142,108,91,63,12216,2147045184,2147659894,2147516288,2147450358,2149227721,2151129344,2153630838,2147701129,2937,-2,9,35053
1358185730,5808,68.1800003051757800,21.4351997375488280,36.4897994995117200,255.3498992919922000,42.1464004516601560,21.4319992065429700,28.3537101745605470,81,145,105,90,63,12210,2147057517,2147681883,2147545554,2147452187,2149593078,2151703890,2154410806,2147803584,2681,-2,9,39876
1358185785,5806,65.3700027465820300,21.4344005584716800,36.4910011291503900,255.5679016113281200,42.1388206481933600,21.4322395324707030,28.3444595336914060,81,145,107,89,64,12202,2147073033,2147702500,2147576978,2147459328,2150000155,2152321682,2155259748,2147922057,2541,-1,9,10182
1358185840,5802,62.5900001525878900,21.4346008300781250,36.4905014038085940,255.6705932617187500,42.1460990905761700,21.4320106506347660,28.3401603698730470,82,142,107,91,62,12202,2147096146,2147735670,2147623926,2147461650,2150569901,2153168091,2156353060,2148099556,2375,-2,9,357
1358185895,5806,59.8400001525878900,21.4388999938964840,36.4902992248535160,255.7250061035156200,42.0149116516113300,21.4360294342041000,28.3360404968261720,85,161,107,89,61,12193,2147121014,2147767332,2147675053,2147468836,2151158226,2154042742,2157509677,2148272347,2207,-2,9,26958
1358185952,5803,57.0400009155273440,21.4358005523681640,36.4887008666992200,256.0892028808594000,42.0758781433105500,21.4341602325439450,28.3216304779052730,87,153,106,92,63,12186,2147153718,2147809737,2147742400,2147477001,2151950317,2155178349,2158969590,2148528356,2039,-2,9,31880
1358186007,5809,54.3800010681152340,21.4374008178710940,36.4883995056152340,256.3540039062500000,42.0260200500488300,21.4356803894042970,28.3097305297851560,86,152,108,91,62,12174,2147192356,2147859117,2147810834,2147486464,2152883693,2156445248,2160544073,2148833243,1982,-2,9,47182
1358186148,5805,48.7700004577636700,21.4498996734619140,36.4849014282226560,257.0765991210937500,41.6631202697753900,21.4467792510986330,28.2747306823730470,90,148,109,93,62,12149,2147306825,2147997019,2148031131,2147520475,2155352694,2159758902,2164676205,2149692800,1648,-2,9,23861
1358186182,5806,47.2400016784668000,21.4521007537841800,36.4845008850097660,257.1640930175781000,41.5750999450683600,21.4494705200195300,28.2701606750488280,90,148,111,92,61,12144,2147340224,2148045110,2148097545,2147533705,2156207990,2160854162,2166001737,2149997696,1562,-2,9,35657
1358186215,5802,45.7799987792968750,21.4531002044677730,36.4846992492675800,257.4558105468750000,41.5035018920898440,21.4516601562500000,28.2569999694824220,89,151,108,93,62,12137,2147385444,2148095981,2148180361,2147550765,2157159917,2162137700,2167558674,2150348809,1509,-2,9,5043
1358186262,5803,43.6800003051757800,21.4538993835449220,36.4847984313964840,257.7785034179687500,41.4333801269531250,21.4538002014160160,28.2426490783691400,87,149,109,91,62,12130,2147454025,2148185289,2148336009,2147586788,2158653412,2164027008,2169769682,2150893933,1330,-2,9,51295
1358186307,5803,41.6500015258789060,21.4568004608154300,36.4841995239257800,257.9415893554687500,41.3287391662597660,21.4570007324218750,28.2344703674316400,86,171,110,92,64,12136,2147548662,2148306934,2148571446,2147676891,2160399158,2166257645,2172339830,2151528539,1071,-2,9,10698
1358186352,5805,39.6300010681152340,21.4626998901367200,36.4832000732421900,258.2273864746094000,41.1022415161132800,21.4639301300048830,28.2196407318115230,84,148,109,94,62,12133,2147657682,2148438528,2148812160,2147810477,2162515657,2168912347,2175217746,2152283730,794,-2,9,54658
1358186397,5805,37.6300010681152340,21.4762992858886720,36.4828987121582000,258.5971984863281000,40.6696090698242200,21.4771595001220700,28.1987304687500000,80,148,110,92,63,12129,2147770870,2148572178,2149027474,2147897773,2164669467,2171678080,2178262272,2153065206,580,-2,9,2883
1358186442,5806,35.6500015258789060,21.4827003479003900,36.4816017150878900,258.9786071777344000,40.3950195312500000,21.4855499267578120,28.1795005798339840,75,160,110,93,63,12126,2147881929,2148702848,2149213897,2147982674,2167047817,2174684132,2181526272,2153916214,538,-2,9,52448
1358186487,5806,33.6699981689453100,21.4902000427246100,36.4809989929199200,259.4111938476562500,40.1355781555175800,21.4934902191162100,28.1581306457519530,74,155,108,91,59,12123,2148035867,2148891675,2149488850,2148101147,2170141741,2178526857,2185604571,2155042916,562,-2,9,24359
1358186532,5803,31.7099990844726560,21.4925994873046880,36.4812011718750000,259.6307067871094000,39.9924888610839840,21.4978599548339840,28.1473808288574220,72,151,109,95,64,12140,2148231396,2149117769,2149818916,2148289517,2174199826,2183484096,2190836534,2156606107,658,-1,9,4984
1358186579,5808,29.6499996185302730,21.5011005401611330,36.4810981750488300,260.0784912109375000,39.7345199584960940,21.5057506561279300,28.1255607604980470,71,152,108,91,61,12137,2148412708,2149327360,2150115867,2148457837,2177982025,2188093531,2195491666,2158020361,619,-2,9,50949
1358186624,5806,27.7500000000000000,21.5062007904052730,36.4809989929199200,260.2367858886719000,39.5422515869140600,21.5116291046142580,28.1166191101074220,69,149,112,92,62,12143,2148628836,2149564214,2150406134,2148624850,2182650358,2193649673,2200974400,2159769782,523,-2,9,9284
1358186669,5806,25.8600006103515620,21.5097007751464840,36.4813995361328100,260.5747985839844000,39.3506698608398440,21.5174903869628900,28.1003208160400400,68,151,107,91,60,12137,2148873627,2149838244,2150741257,2148811218,2188076790,2200225280,2207550884,2161869814,477,-2,9,60238
